Weather in Kryuki

Russia / Pskov Oblast     57°10′35″N   28°28′42″E
temp.,
°C
wind,
m/s
gust,
m/s
humid.,
%
clouds,
%
prec.,
mm/h
press.,
hPa
HPBL,
m
6 may, thu
thu600:00+7sse41095100 0.1 999256
03:00+7se3598100 2.4 997147
06:00+6n3598100 5.0 995273
09:00+6wsw1296100 11.3 995146
12:00+7sw3592100 1.1 996389
15:00+9sw61080100 2.3 9961392
18:00+6wsw71290100 0.9 9981201
21:00+5sw6128999 1.0 10001167
7 may, fri
fri700:00+4sw61287100 0.1 1001903
03:00+5sw6128426 0.1 10021062
06:00+4sw6138673 0.0 1002863
09:00+6sw61073100 0.0 10031040
12:00+8sw596899 0.1 10041401
15:00+11wsw5851100 0.2 10051972
18:00+10w3554100 0.0 10041191
21:00+7e2269100 0.0 100430
8 may, sat
sat800:00+6sse1293100 0.8 100352
03:00+5nnw1294100 2.6 100286
06:00+5nw3696100 1.9 1002490
09:00+3wnw51097100 2.2 1004481
12:00+7wnw5770100 0.3 10041358
15:00+7wnw4765100 0.3 10061328
18:00+7nw596611 0.5 10071583
21:00+4nw4107988 0.6 1010605
9 may, sun
sun900:00+2w411875 0.0 1012304
03:00+1w411860 0.0 1015318
06:000w310880 0.0 1017261
09:00+7wsw4857100 0.0 1018595
12:00+10sw5744100 0.0 10191358
15:00+12sw684498 0.0 10192162
18:00+12sw5850100 0.0 10191455
21:00+9ssw4105990 0.0 1020388
10 may, mon
mon1000:00+6ssw4117378 0.0 1022301
03:00+7s61582100 0.4 1022545
06:00+8s51375100 0.0 1023461
09:00+13ssw6116512 0.0 1023563
12:00+17ssw69505 0.0 10241132
15:00+19ssw694727 0.0 10231546
18:00+18s610550 0.0 10231299
21:00+13s4107378 0.0 1024305